This demonstration page uses our WeatherBlox Daily Observations layout. Learn more.

Left ArrowRight Arrow

31.84235, -102.49876

Hourly Observations for March 21, 2017

Temp ( °F °C ) Dew Point ( °F °C ) Humidity (%) Winds ( mph kmh ) Pressure ( in mb ) Visibility ( mi km ) Precip ( " mm )
12:53 am 00:53 Clear 71 21.7 51 10.6 49 49 S 14 22 29.91 1013 10 16 0.00 0.00
1:53 am 01:53 Clear 70 21.1 52 11.1 53 53 S 15 24 29.90 1013 10 16 0.00 0.00
2:53 am 02:53 Clear 68 20 52 11.1 57 57 SSW 10 17 29.90 1013 10 16 0.00 0.00
3:53 am 03:53 Clear 66 18.9 51 10.6 59 59 S 8 13 29.88 1012 10 16 0.00 0.00
4:53 am 04:53 Clear 65 18.3 51 10.6 61 61 SSW 9 15 29.89 1012 10 16 0.00 0.00
5:53 am 05:53 Clear 65 18.3 51 10.6 61 61 S 12 19 29.88 1012 10 16 0.00 0.00
6:53 am 06:53 Clear 66 18.9 51 10.6 59 59 WSW 7 11 29.91 1013 10 16 0.00 0.00
7:53 am 07:53 Sunny 66 18.9 51 10.6 59 59 SSW 8 13 29.92 1013 10 16 0.00 0.00
8:53 am 08:53 Sunny 66 18.9 51 10.6 59 59 WNW 8 13 29.95 1014 10 16 0.00 0.00
9:53 am 09:53 Sunny 57 13.9 52 11.1 83 83 VRB 5 7 29.97 1015 10 16 0.00 0.00
10:53 am 10:53 Sunny 76 24.4 50 10 40 40 W 8 13 29.96 1014 10 16 0.00 0.00
11:53 am 11:53 Sunny 81 27.2 47 8.3 30 30 SW 9 15 29.95 1014 10 16 0.00 0.00
12:53 pm 12:53 Sunny 86 30 45 7.2 24 24 SW 8 13 29.92 1013 10 16 0.00 0.00
1:53 pm 13:53 Sunny 90 32.2 39 3.9 17 17 SW 6 9 29.89 1012 10 16 0.00 0.00
2:53 pm 14:53 Sunny 92 33.3 34 1.1 13 13 W 6 9 29.86 1011 10 16 0.00 0.00
3:53 pm 15:53 Sunny 93 33.9 31 -0.6 11 11 VRB 5 7 29.84 1011 10 16 0.00 0.00
4:53 pm 16:53 Sunny 94 34.4 30 -1.1 10 10 WSW 13 20 29.82 1010 10 16 0.00 0.00
5:53 pm 17:53 Sunny 94 34.4 28 -2.2 9 9 NNW 8 13 29.81 1009 10 16 0.00 0.00
6:53 pm 18:53 Sunny 92 33.3 27 -2.8 10 10 W 7 11 29.81 1009 10 16 0.00 0.00
7:53 pm 19:53 Sunny 87 30.6 31 -0.6 13 13 W 6 9 29.83 1010 10 16 0.00 0.00
8:53 pm 20:53 Clear 82 27.8 37 2.8 20 20 SSW 13 20 29.85 1011 10 16 0.00 0.00
9:53 pm 21:53 Clear 78 25.6 42 5.6 28 28 SSW 9 15 29.88 1012 10 16 0.00 0.00
10:53 pm 22:53 Clear 77 25 48 8.9 36 36 SSW 16 26 29.87 1012 10 16 0.00 0.00
11:53 pm 23:53 Clear 75 23.9 53 11.7 46 46 S 13 20 29.88 1012 10 16 0.00 0.00

Powered by AerisWeather